Weather History for KTKV - March, 2014

Change the Weather History Date:

Sunday, March 23, 2014

  Actual Average (KRHI) Record (KRHI)
Temperature  
Mean Temperature 8 °F 30 °F  
Max Temperature 20 °F 40 °F 70 °F (1910)
Min Temperature -4 °F 20 °F -10 °F (1965)
Degree Days  
Heating Degree Days 58 35  
Month to date heating degree days 912  
Since 1 July heating degree days 7534  
Cooling Degree Days 0 0  
Month to date cooling degree days 0  
Year to date cooling degree days 0  
Moisture  
Dew Point -2 °F    
Average Humidity 66    
Maximum Humidity 86    
Minimum Humidity 39    
Precipitation  
Precipitation 0.00 in 0.05 in 1.27 in (1979)
Month to date precipitation 1.10  
Year to date precipitation 3.14  
Snow  
Snow 0.00 in - 11.00 in (2011)
Month to date snowfall  
Since 1 July snowfall  
Snow Depth -    
Sea Level Pressure  
Sea Level Pressure 30.32 in    
Wind  
Wind Speed 2 mph (West)    
Max Wind Speed 12 mph    
Max Gust Speed 18 mph    
Visibility 10 miles    
Events      
T = Trace of Precipitation, MM = Missing Value Source: NWS Daily Summary

Daily Weather History Graph

Daily Weather History Graph

Search for Another Location

Airport or City:

Trip Planner

Search our weather history database for the weather conditions in past years. The results will help you decide how hot, cold, wet, or windy it might be!

Date:

Astronomy

Mar. 23, 2014 Rise Set
Actual Time 6:56 AM CDT 7:15 PM CDT
Civil Twilight 6:27 AM CDT 7:45 PM CDT
Nautical Twilight 5:52 AM CDT 8:20 PM CDT
Astronomical Twilight 5:16 AM CDT 8:56 PM CDT
Moon 1:46 AM CDT (3/23) 11:23 AM CDT (3/23)
Length of Visible Light 13h 18m
Length of Day
12h 19m
Waning Gibbous, 54% of the Moon is Illuminated
Mar 23
Waning Gibbous
Mar 23
Last Quarter
Mar 30
New
Apr 7
First Quarter
Apr 15
Full

Hourly Weather History & Observations

Time (CDT) Temp. Windchill Dew Point Humidity Pressure Visibility Wind Dir Wind Speed Gust Speed Precip Events Conditions
12:15 AM 3.6 °F - -0.4 °F 84% 30.34 in 10.0 mi Calm Calm - N/A   Clear
12:35 AM 3.6 °F - -0.2 °F 84% 30.34 in 10.0 mi Calm Calm - N/A   Clear
12:55 AM 3.2 °F - -0.8 °F 84% 30.35 in 10.0 mi Calm Calm - N/A   Clear
1:15 AM 3.2 °F - -0.4 °F 85% 30.35 in 10.0 mi Calm Calm - N/A   Clear
1:35 AM 0.9 °F - -2.4 °F 86% 30.35 in 10.0 mi Calm Calm - N/A   Clear
1:55 AM 0.1 °F - -3.5 °F 85% 30.35 in 10.0 mi Calm Calm - N/A   Clear
2:15 AM -0.6 °F - -4.0 °F 85% 30.35 in 10.0 mi Calm Calm - N/A   Clear
2:35 AM -2.4 °F - -6.0 °F 85% 30.35 in 10.0 mi Calm Calm - N/A   Clear
2:55 AM -0.4 °F - -3.8 °F 85% 30.35 in 10.0 mi Calm Calm - N/A   Clear
3:15 AM -0.2 °F - -4.0 °F 84% 30.35 in 10.0 mi Calm Calm - N/A   Clear
3:35 AM 0.1 °F - -4.0 °F 83% 30.35 in 10.0 mi Calm Calm - N/A   Clear
3:55 AM -0.6 °F - -4.5 °F 83% 30.35 in 10.0 mi Calm Calm - N/A   Clear
4:15 AM -0.6 °F - -4.4 °F 84% 30.35 in 10.0 mi Calm Calm - N/A   Clear
4:35 AM -0.8 °F - -4.5 °F 84% 30.36 in 10.0 mi Calm Calm - N/A   Clear
4:55 AM -0.0 °F - -4.0 °F 83% 30.36 in 10.0 mi Calm Calm - N/A   Clear
5:15 AM 0.1 °F - -3.8 °F 83% 30.36 in 10.0 mi Calm Calm - N/A   Clear
5:35 AM -0.4 °F - -4.2 °F 84% 30.36 in 10.0 mi Calm Calm - N/A   Clear
5:55 AM -1.5 °F -11.6 °F -5.3 °F 84% 30.36 in 10.0 mi West 4.6 mph - N/A   Clear
6:15 AM -1.8 °F - -5.8 °F 83% 30.36 in 10.0 mi Calm Calm - N/A   Clear
6:35 AM -2.7 °F - -6.5 °F 84% 30.36 in 10.0 mi Calm Calm - N/A   Clear
6:55 AM -4.0 °F - -7.6 °F 85% 30.36 in 10.0 mi Calm Calm - N/A   Clear
7:15 AM -4.4 °F - -8.0 °F 84% 30.36 in 10.0 mi Calm Calm - N/A   Clear
7:35 AM -2.7 °F - -6.3 °F 85% 30.37 in 10.0 mi Calm Calm - N/A   Clear
7:55 AM -1.5 °F - -4.7 °F 86% 30.37 in 10.0 mi Calm Calm - N/A   Clear
8:15 AM 1.4 °F - -2.6 °F 83% 30.37 in 10.0 mi Calm Calm - N/A   Clear
8:35 AM 3.0 °F -9.3 °F -1.5 °F 82% 30.37 in 10.0 mi West 6.9 mph - N/A   Clear
8:55 AM 4.3 °F -6.5 °F -0.6 °F 80% 30.37 in 10.0 mi West 5.8 mph - N/A   Clear
9:15 AM 6.6 °F -3.7 °F 0.5 °F 76% 30.37 in 10.0 mi West 5.8 mph - N/A   Clear
9:35 AM 7.5 °F -2.6 °F 0.3 °F 72% 30.37 in 10.0 mi WNW 5.8 mph - N/A   Clear
9:55 AM 8.6 °F - -0.0 °F 68% 30.37 in 10.0 mi Calm Calm - N/A   Clear
10:15 AM 9.7 °F -0.1 °F -0.4 °F 64% 30.37 in 10.0 mi WSW 5.8 mph - N/A   Clear
10:35 AM 11.1 °F 4.9 °F -1.1 °F 58% 30.37 in 10.0 mi West 3.5 mph - N/A   Clear
10:55 AM 11.7 °F 0.0 °F -1.1 °F 57% 30.36 in 10.0 mi West 8.1 mph - N/A   Clear
11:15 AM 12.4 °F 2.0 °F -0.8 °F 56% 30.36 in 10.0 mi West 6.9 mph - N/A   Clear
11:35 AM 13.1 °F -0.7 °F -0.8 °F 54% 30.35 in 10.0 mi West 11.5 mph - N/A   Scattered Clouds
11:55 AM 14.2 °F 4.1 °F -0.6 °F 52% 30.35 in 10.0 mi West 6.9 mph - N/A   Scattered Clouds
12:15 PM 14.4 °F 2.4 °F 0.3 °F 54% 30.34 in 10.0 mi West 9.2 mph - N/A   Mostly Cloudy
12:35 PM 14.7 °F 2.1 °F -0.4 °F 51% 30.34 in 10.0 mi West 10.4 mph - N/A   Scattered Clouds
12:55 PM 15.6 °F 4.0 °F 0.1 °F 51% 30.33 in 10.0 mi West 9.2 mph 18.4 mph N/A   Scattered Clouds
1:15 PM 16.0 °F 6.3 °F -0.2 °F 49% 30.32 in 10.0 mi West 6.9 mph - N/A   Scattered Clouds
1:35 PM 16.7 °F 3.8 °F 0.1 °F 48% 30.32 in 10.0 mi WNW 11.5 mph 18.4 mph N/A   Scattered Clouds
1:55 PM 17.4 °F 6.2 °F 0.1 °F 47% 30.31 in 10.0 mi West 9.2 mph - N/A   Scattered Clouds
2:15 PM 17.8 °F 7.5 °F -0.6 °F 45% 30.31 in 10.0 mi West 8.1 mph - N/A   Scattered Clouds
2:35 PM 18.7 °F 7.8 °F -0.0 °F 44% 30.30 in 10.0 mi WSW 9.2 mph - N/A   Scattered Clouds
2:55 PM 18.1 °F 7.9 °F -0.4 °F 44% 30.30 in 10.0 mi NW 8.1 mph 16.1 mph N/A   Mostly Cloudy
3:15 PM 19.4 °F 7.9 °F 0.1 °F 43% 30.29 in 10.0 mi West 10.4 mph - N/A   Mostly Cloudy
3:35 PM 19.2 °F 8.4 °F -0.2 °F 43% 30.29 in 10.0 mi West 9.2 mph - N/A   Overcast
3:55 PM 19.2 °F 8.4 °F -0.6 °F 42% 30.28 in 10.0 mi West 9.2 mph - N/A   Overcast
4:15 PM 19.4 °F 11.5 °F -0.6 °F 42% 30.28 in 10.0 mi West 5.8 mph - N/A   Mostly Cloudy
4:35 PM 19.6 °F 10.6 °F -0.6 °F 41% 30.28 in 10.0 mi West 6.9 mph 16.1 mph N/A   Mostly Cloudy
4:55 PM 19.6 °F 11.7 °F -0.8 °F 41% 30.28 in 10.0 mi West 5.8 mph - N/A   Mostly Cloudy
5:15 PM 19.4 °F 7.2 °F -1.5 °F 40% 30.28 in 10.0 mi West 11.5 mph 16.1 mph N/A   Scattered Clouds
5:35 PM 19.0 °F 9.0 °F -2.2 °F 39% 30.28 in 10.0 mi WSW 8.1 mph - N/A   Scattered Clouds
5:55 PM 19.0 °F 8.2 °F -2.4 °F 39% 30.28 in 10.0 mi West 9.2 mph - N/A   Scattered Clouds
6:15 PM 18.3 °F 6.6 °F -1.7 °F 42% 30.28 in 10.0 mi West 10.4 mph - N/A   Scattered Clouds
6:35 PM 17.6 °F 7.3 °F -2.0 °F 42% 30.28 in 10.0 mi West 8.1 mph - N/A   Scattered Clouds
6:55 PM 16.7 °F 7.2 °F -2.2 °F 43% 30.28 in 10.0 mi West 6.9 mph - N/A   Clear
7:15 PM 15.1 °F 7.7 °F -2.0 °F 47% 30.27 in 10.0 mi West 4.6 mph - N/A   Clear
7:35 PM 13.5 °F - -2.4 °F 49% 30.27 in 10.0 mi Calm Calm - N/A   Clear
7:55 PM 12.4 °F - -2.7 °F 51% 30.27 in 10.0 mi Calm Calm - N/A   Clear
8:15 PM 11.1 °F - -2.9 °F 53% 30.27 in 10.0 mi Calm Calm - N/A   Clear
8:35 PM 9.5 °F - -2.4 °F 59% 30.27 in 10.0 mi Calm Calm - N/A   Clear
8:55 PM 8.1 °F - -2.9 °F 61% 30.28 in 10.0 mi Calm Calm - N/A   Clear
9:15 PM 6.4 °F - -3.3 °F 64% 30.28 in 10.0 mi Calm Calm - N/A   Clear
9:35 PM 5.7 °F - -3.1 °F 67% 30.28 in 10.0 mi Calm Calm - N/A   Clear
9:55 PM 3.6 °F - -4.0 °F 71% 30.28 in 10.0 mi Calm Calm - N/A   Clear
10:15 PM 3.9 °F - -3.1 °F 73% 30.28 in 10.0 mi Calm Calm - N/A   Clear
10:35 PM 2.3 °F - -5.1 °F 71% 30.28 in 10.0 mi Calm Calm - N/A   Clear
10:55 PM 1.0 °F - -5.8 °F 73% 30.28 in 10.0 mi Calm Calm - N/A   Clear
11:15 PM -0.2 °F - -4.9 °F 81% 30.28 in 10.0 mi Calm Calm - N/A   Clear
11:35 PM 1.6 °F - -3.6 °F 79% 30.28 in 10.0 mi Calm Calm - N/A   Clear
11:55 PM 0.1 °F - -5.6 °F 77% 30.27 in 10.0 mi Calm Calm - N/A   Clear